Flag for Russia Weather past 2 weeks in Barnaul, Russia

Now
73 °F

Broken clouds.


Feels Like: 77 °F
Forecast: 54 / 74 °F
Wind: 15 mph from North

Location: Barnaul Airport

Current Time: Aug 20, 2014 at 11:51:58 AM

Latest Report: Aug 20, 2014 at 11:30 AM


Visibility: N/A

Pressure: 29.95 "Hg

Humidity: 57%

Dew point: 57 °F

Location of BarnaulLocation

Historic Weather in Barnaul — Graph

°F

Barnaul temperature yesterday

Maximum temperature yesterday: 88 °F (at 4:00 PM)
Minimum temperature yesterday: 64 °F (at 5:30 AM)
Average temperature yesterday: 76 °F

Past Weeks' High & Low Weather Summary

 TemperatureHumidityPressure
High88 °F (Aug 19, 4:00 PM)100% (Aug 8, 7:00 AM)30.07 "Hg (Aug 8, 7:00 AM)
Low43 °F (Aug 9, 5:30 AM)26% (Aug 12, 7:30 PM)29.53 "Hg (Aug 13, 7:00 AM)
Average69 °F63%29.83 "Hg
* Reported Aug 5 10:00 AM — Aug 20 10:30 AM, Barnaul, Weather by CustomWeather, © 2014

Note: Actual official high and low records may vary slightly from our data, if they occured in-between our weather recording intervals... More about our weather records

Advertising

Barnaul weather history for previous 24 hours

 ConditionsComfort  
Time TempWeatherWind HumidityBarometerVisibility
10:30 AM
Aug 20
73 °FBroken clouds.15 mph69%29.95 "HgN/A
10:00 AM72 °FBroken clouds.13 mph69%29.92 "HgN/A
9:30 AM72 °FBroken clouds.13 mph69%29.92 "HgN/A
9:00 AM68 °FBroken clouds.13 mph78%29.92 "HgN/A
8:30 AM68 °FBroken clouds.10 mph73%29.89 "HgN/A
8:00 AM70 °FBroken clouds.8 mph69%29.89 "HgN/A
7:30 AM68 °FBroken clouds.10 mph69%29.89 "HgN/A
7:00 AM68 °FPassing clouds.8 mph64%29.86 "HgN/A
6:30 AM68 °FPartly cloudy.8 mph64%29.89 "HgN/A
6:00 AM72 °FPartly cloudy.10 mph57%29.86 "HgN/A
5:30 AM72 °FPartly cloudy.10 mph61%29.86 "HgN/A
5:00 AM72 °FClear.8 mph61%29.86 "Hg10 mi
4:30 AM72 °FPassing clouds.8 mph61%29.89 "HgN/A
4:00 AM73 °FClear.13 mph57%29.86 "Hg10 mi
3:30 AM73 °FClear.15 mph57%29.86 "Hg10 mi
3:00 AM73 °FClear.13 mph57%29.89 "Hg10 mi
2:30 AM73 °FClear.13 mph61%29.89 "Hg10 mi
2:00 AM73 °FClear.13 mph61%29.89 "Hg10 mi
1:30 AM75 °FClear.10 mph57%29.92 "Hg10 mi
1:00 AM75 °FClear.10 mph61%29.92 "Hg10 mi
12:30 AM75 °FClear.10 mph61%29.92 "Hg10 mi
12:00 AM75 °FClear.10 mph61%29.92 "Hg10 mi
11:30 PM
Aug 19
77 °FClear.10 mph57%29.95 "Hg10 mi
11:00 PM77 °FClear.8 mph57%29.95 "Hg10 mi
10:30 PM77 °FClear.10 mph57%29.95 "Hg10 mi
10:00 PM79 °FClear.8 mph54%29.95 "Hg10 mi
9:30 PM79 °FSunny.8 mph54%29.95 "Hg10 mi
9:00 PM81 °FSunny.8 mph51%29.95 "Hg10 mi
8:30 PM82 °FSunny.8 mph48%29.95 "Hg10 mi
8:00 PM84 °FSunny.6 mph45%29.95 "Hg10 mi
7:30 PM84 °FSunny.6 mph45%29.95 "Hg10 mi
7:00 PM86 °FSunny.8 mph40%29.95 "Hg10 mi
6:30 PM88 °FSunny.8 mph38%29.98 "Hg10 mi
6:00 PM88 °FSunny.8 mph35%29.98 "Hg10 mi
5:30 PM88 °FSunny.8 mph35%29.98 "Hg10 mi
5:00 PM88 °FSunny.10 mph33%29.98 "Hg10 mi
4:30 PM88 °FSunny.8 mph33%29.98 "Hg10 mi
4:00 PM88 °FSunny.10 mph33%30.01 "Hg10 mi
3:30 PM86 °FSunny.10 mph38%30.01 "Hg10 mi
3:00 PM86 °FSunny.10 mph38%30.01 "Hg10 mi
2:30 PM84 °FSunny.10 mph37%30.01 "Hg10 mi
2:00 PM84 °FSunny.10 mph40%30.01 "Hg10 mi
1:30 PM82 °FSunny.10 mph40%30.04 "Hg10 mi
1:00 PM81 °FSunny.10 mph42%30.04 "Hg10 mi
12:30 PM81 °FSunny.8 mph42%30.04 "Hg10 mi
12:00 PM79 °FSunny.8 mph42%30.04 "Hg10 mi
11:30 AM77 °FSunny.8 mph47%30.04 "Hg10 mi
11:00 AM75 °FSunny.8 mph47%30.07 "Hg10 mi
Weather by CustomWeather, © 2014

See weather overviewHow to use our weather pages